sat.trackr.live / text

‹ back to catalog

STARLINK-30829

NORAD 58158 · 2023-166J

PAYLOAD ACTIVE UNKNOWN

§ Identity

Operator
Country
US
Launch date
2023-10-29
Launch site
AFWTR
Launch vehicle
Mass (kg)
RCS (m²)

Purposes: comms

External: N2YO · Heavens-Above · Gunter

§ Orbital elements

Epoch: 2026-05-25T05:05:03.711264Z

Period
94.01 min
Inclination
53.1610°
Eccentricity
0.0001135
Mean motion
15.31698261 rev/d
Perigee alt
470.0 km
Apogee alt
471.5 km
Semi-major
6,848.9 km
B*
4.0856e-5
RAAN
224.2821°
Arg perigee
92.4674°
Mean anomaly
267.6457°
Rev number
14,489

§ Raw data

STARLINK-308291 58158U 23166J   26145.21184851  .00000903  00000+0  40856-4 0  99912 58158  53.1610 224.2821 0001135  92.4674 267.6457 15.31698261144893

JSON: /api/v1/satellites/58158 · /tle

For live sub-satellite position, see the globe view (requires WebGL).

§ Visibility from observer

Set your observer location to see the next 7 days of passes ≥ 10°. The values pass through the URL so the page stays shareable.

No JS? Fill the form by hand. The geolocation button needs JavaScript.